Location: Banff
(51.1667°N, 115.5667°W)
Time: 04:24:33
(UTC+00:00)

Explorer 7 - Pass Details

Date: 01 December 2020
Orbit: 484 x 678 km, 50.3° (Epoch: 16 January)

Event Time Altitude Azimuth Distance (km) Brightness Sun altitude
Exits shadow 14:29:18 - 271° (W) 1,943 9.0 -8.4°
Reaches altitude 10° 14:29:39 10° 268° (W) 1,830 8.9 -8.3°
Maximum altitude 14:32:53 22° 217° (SW) 1,188 8.4 -7.9°
Drops below altitude 10° 14:35:59 10° 165° (SSE) 1,739 10.0 -7.4°
Sets 14:38:27 0° 150° (SSE) 2,594 11.3 -7.1°
